Regional Weather Roundup
Issued by NWS

Home | Current Version | Previous Version | Text Only | Print | Product List | Glossary On
Versions: 1 2 3 4 5 6 7 8 9 10 11 12 13 14 15 16 17 18 19 20 21 22 23 24 25 26 27
000
ASUS43 KDMX 171007
RWRIA

WEATHER ROUNDUP FOR IOWA
NATIONAL WEATHER SERVICE DES MOINES IA
500 AM CDT THU APR 17 2014

NOTE: "FAIR" INDICATES FEW OR NO CLOUDS BELOW 12,000 FEET WITH NO
SIGNIFICANT WEATHER AND/OR OBSTRUCTIONS TO VISIBILITY.

* - THESE STATIONS ARE NOT NWS STATIONS...THUS NOT UNDER NWS
QUALITY CONTROL.  THEY ALSO DO NOT REPORT WEATHER SUCH
AS PRECIPITATION OR FOG.

IAZ001>003-012>014-020>022-031>034-043>046-171100-
   NORTHWEST IOWA

CITY           SKY/WX    TMP DP  RH WIND       PRES   REMARKS
CARROLL *      CLOUDY    32  27  80 NW21G26   30.16R WCI  20
CHEROKEE *     CLOUDY    30  27  86 NW12G17   30.18R WCI  21
DENISON *      CLOUDY    32  27  80 N17G26    30.16R WCI  21
LE MARS *      CLOUDY    30  25  80 NW15      30.22R WCI  19
ORANGE CITY *  CLOUDY    28  23  80 NW13      30.19R WCI  18
SHELDON *      MOCLDY    27  23  86 NW13G21   30.17R WCI  16
SIOUX CITY     CLOUDY    31  24  75 NW18      30.22R WCI  19
SPENCER        CLOUDY    29  24  82 N16       30.16R WCI  17
STORM LAKE *   CLOUDY    28  27  93 NW21G26   30.14S WCI  15
$$

IAZ055>058-069>071-079>083-090>094-171100-
   SOUTHWEST IOWA

CITY           SKY/WX    TMP DP  RH WIND       PRES   REMARKS
ATLANTIC *     CLOUDY    32  27  80 NW13G20   30.20R WCI  22
AUDUBON *      CLOUDY    32  25  74 NW12G18   30.19R WCI  23
CLARINDA *     CLOUDY    36  28  75 N14       30.22R WCI  27
COUNCIL BLFS * CLOUDY    32  28  86 N12G17    30.20R WCI  23
CRESTON *      CLOUDY    32  30  93 NW17      30.17R WCI  21
HARLAN  *      CLOUDY    32  27  80 N16       30.23R WCI  21
LAMONI         CLOUDY    36  29  75 NW13      30.15R WCI  27
RED OAK *      CLOUDY    34  28  80 NW12      30.21R WCI  25
SHENANDOAH *   CLOUDY    34  28  80 N12G21    30.23R WCI  25
$$

IAZ047>049-059>061-072>074-084-171100-
   CENTRAL IOWA

CITY           SKY/WX    TMP DP  RH WIND       PRES   REMARKS
AMES           CLOUDY    33  28  81 NW13      30.13R WCI  24
ANKENY *       CLOUDY    34  30  86 NW15      30.15R WCI  24
CHARITON *     CLOUDY    36  32  87 NW13G20   30.14R WCI  27
DES MOINES     CLOUDY    35  28  75 NW18      30.16R WCI  24
GRINNELL*      CLOUDY    35  32  88 W18       30.11R WCI  24
KNOXVILLE *    CLOUDY    36  30  80 NW15G22   30.13R WCI  26
MARSHALLTOWN   CLOUDY    33  30  88 W15       30.09R WCI  23
NEWTON *       CLOUDY    34  30  86 W14G22    30.14R WCI  24
PELLA *        CLOUDY    36  31  82 NW13G22   30.14R WCI  28
PERRY *        CLOUDY    33  28  81 NW12      30.16R WCI  25
$$

IAZ004>006-015-016-023>025-035-036-171100-
   NORTH CENTRAL IOWA

CITY           SKY/WX    TMP DP  RH WIND       PRES   REMARKS
ALGONA *       CLOUDY    30  27  86 NW17G25   30.12R WCI  18
CLARION *      CLOUDY    30  28  93 NW24G31   30.08F WCI  16
ESTHERVILLE    CLOUDY    27  25  92 NW23      30.13R WCI  12
FORT DODGE *   CLOUDY    30  25  80 NW10G20   30.11R WCI  21
MASON CITY     CLOUDY    30  29  96 NW23      30.06R WCI  17
FOREST CITY *  CLOUDY    32  30  93 NW18G30   30.06R WCI  20
IOWA FALLS *   CLOUDY    32  29  90 W14       30.08R WCI  22
$$

IAZ007>011-017>019-026>030-037>042-050>054-066-171100-
   NORTHEAST IOWA

CITY           SKY/WX    TMP DP  RH WIND       PRES   REMARKS
CEDAR RAPIDS   CLOUDY    37  31  78 W17G24    30.06R WCI  27
CHARLES CITY * CLOUDY    32  30  93 NW22G29   30.03R WCI  19
CLINTON *      MOCLDY    43  28  56 SW14      30.06R
DECORAH *      CLOUDY    36  34  93 W10G21    29.97R WCI  28
DUBUQUE        CLOUDY    43  32  65 SW14      29.98R
MONTICELLO *   CLOUDY    39  36  87 W18       30.03R WCI  30
OELWEIN *      CLOUDY   N/A N/A N/A W13G20    30.03R
WATERLOO       CLOUDY    34  30  85 W9G21     30.05R WCI  27
$$

IAZ064-065-067-068-078-171100-
   EAST CENTRAL IOWA

CITY           SKY/WX    TMP DP  RH WIND       PRES   REMARKS
DAVENPORT      MOCLDY    43  33  68 SW12      30.05R
IOWA CITY      CLOUDY    39  34  82 W16G29    30.09R WCI  30
MT. PLEASANT * CLOUDY    43  37  78 W14G20    30.09R
MUSCATINE *    CLOUDY    45  39  81 W18G25    30.06F
$$

IAZ062-063-075>077-085>089-095>099-171100-
   SOUTHEAST IOWA

CITY           SKY/WX    TMP DP  RH WIND       PRES   REMARKS
BURLINGTON     CLEAR     43  35  73 W10       30.08R
FAIRFIELD *    CLOUDY    41  34  75 W13       30.11R
FORT MADISON * CLEAR     43  37  81 W5        30.10F
KEOKUK *       CLEAR     43  36  75 W9        30.10S
OSKALOOSA *    CLOUDY    37  33  82 NW21      30.12R WCI  27
CENTERVILLE *  CLOUDY    37  34  87 W13       30.14R WCI  29
OTTUMWA        CLOUDY    37  32  82 W15G24    30.11R WCI  28
WASHINGTON *   CLOUDY    41  36  81 W12G18    30.10R
$$

ABBREVIATIONS USED IN REMARKS
   TC - TEMPERATURES IN CELSIUS
  WCI - WIND CHILL INDEX
   HX - HEAT INDEX
  VSB - VISIBILITY
$$




USA.gov is the U.S. government's official web portal to all federal, state and local government web resources and services.